• In Hungary
  • List of Countries
  • For 7 days
  • Water Temperature
  • Satellite Maps
  • Weather Map
  • News
  • Weather Widgets
  • user-avatar
    Login

    Hourly Weather Kurichino

    Today, 21 August, Tuesday

    Time Temperature Precipitation Wind Pressure Humidity
    00:00 +18°C° 0 mm 4 mps 732 mmHg 88%
    01:00 +18°C° 0 mm 4 mps 731 mmHg 88%
    02:00 +18°C° 0 mm 4 mps 730 mmHg 88%
    03:00 +18°C° 0.3 mm 4 mps 730 mmHg 90%
    04:00 +17°C° 0.3 mm 4 mps 729 mmHg 92%
    05:00 +17°C° 0.3 mm 4 mps 729 mmHg 95%
    06:00 +16°C° 0.4 mm 5 mps 729 mmHg 94%
    07:00 +16°C° 0.4 mm 5 mps 729 mmHg 94%
    08:00 +15°C° 0.4 mm 5 mps 729 mmHg 94%
    09:00 +16°C° 0.2 mm 5 mps 729 mmHg 87%
    10:00 +17°C° 0.2 mm 5 mps 730 mmHg 81%
    11:00 +17°C° 0.2 mm 5 mps 730 mmHg 74%
    12:00 +17°C° 0.1 mm 6 mps 730 mmHg 70%
    13:00 +17°C° 0.1 mm 6 mps 731 mmHg 67%
    14:00 +17°C° 0.1 mm 6 mps 731 mmHg 63%
    15:00 +17°C° 0 mm 6 mps 731 mmHg 61%
    16:00 +17°C° 0 mm 5 mps 732 mmHg 59%
    17:00 +16°C° 0 mm 5 mps 732 mmHg 57%
    18:00 +15°C° 0 mm 4 mps 732 mmHg 63%
    19:00 +13°C° 0 mm 3 mps 733 mmHg 69%
    20:00 +13°C° 0 mm 2 mps 733 mmHg 75%
    21:00 +11°C° 0 mm 3 mps 733 mmHg 77%
    22:00 +11°C° 0 mm 3 mps 734 mmHg 78%
    23:00 +10°C° 0 mm 3 mps 734 mmHg 80%

    Tomorrow, 22 August, Wednesday

    Time Temperature Precipitation Wind Pressure Humidity
    00:00 +10°C° 0 mm 3 mps 734 mmHg 81%
    01:00 +10°C° 0 mm 3 mps 735 mmHg 82%
    02:00 +9°C° 0 mm 3 mps 735 mmHg 83%
    03:00 +9°C° 0 mm 3 mps 736 mmHg 85%
    04:00 +9°C° 0 mm 3 mps 736 mmHg 86%
    05:00 +8°C° 0 mm 4 mps 736 mmHg 88%
    06:00 +10°C° 0 mm 4 mps 737 mmHg 82%
    07:00 +11°C° 0 mm 4 mps 737 mmHg 76%
    08:00 +12°C° 0 mm 4 mps 738 mmHg 69%
    09:00 +13°C° 0 mm 5 mps 738 mmHg 63%
    10:00 +15°C° 0 mm 5 mps 739 mmHg 56%
    11:00 +16°C° 0 mm 5 mps 739 mmHg 49%
    12:00 +16°C° 0 mm 5 mps 739 mmHg 47%
    13:00 +16°C° 0 mm 5 mps 739 mmHg 46%
    14:00 +17°C° 0 mm 5 mps 740 mmHg 44%
    15:00 +17°C° 0 mm 4 mps 740 mmHg 47%
    16:00 +17°C° 0 mm 4 mps 740 mmHg 49%
    17:00 +17°C° 0 mm 4 mps 740 mmHg 52%
    18:00 +14°C° 0 mm 3 mps 741 mmHg 59%
    19:00 +13°C° 0 mm 2 mps 741 mmHg 67%
    20:00 +10°C° 0 mm 2 mps 741 mmHg 74%
    21:00 +9°C° 0 mm 2 mps 742 mmHg 76%
    22:00 +9°C° 0 mm 2 mps 742 mmHg 79%
    23:00 +8°C° 0 mm 2 mps 742 mmHg 81%

    Day after tomorrow, 23 August, Thursday

    Time Temperature Precipitation Wind Pressure Humidity
    00:00 +9°C° 0 mm 1 mps 742 mmHg 83%
    01:00 +8°C° 0 mm 1 mps 743 mmHg 84%
    02:00 +8°C° 0 mm 1 mps 743 mmHg 85%
    03:00 +8°C° 0 mm 1 mps 743 mmHg 86%
    04:00 +8°C° 0 mm 1 mps 743 mmHg 87%
    05:00 +8°C° 0 mm 1 mps 743 mmHg 87%
    06:00 +10°C° 0 mm 1 mps 743 mmHg 80%
    07:00 +12°C° 0 mm 2 mps 743 mmHg 72%
    08:00 +14°C° 0 mm 2 mps 743 mmHg 64%
    09:00 +16°C° 0 mm 2 mps 743 mmHg 59%
    10:00 +17°C° 0 mm 2 mps 743 mmHg 53%
    11:00 +19°C° 0 mm 2 mps 743 mmHg 48%
    12:00 +19°C° 0 mm 3 mps 743 mmHg 46%
    13:00 +20°C° 0 mm 3 mps 743 mmHg 45%
    14:00 +20°C° 0 mm 3 mps 742 mmHg 44%
    15:00 +20°C° 0 mm 2 mps 742 mmHg 48%
    16:00 +20°C° 0 mm 2 mps 742 mmHg 52%
    17:00 +19°C° 0 mm 2 mps 742 mmHg 56%
    18:00 +17°C° 0 mm 2 mps 742 mmHg 63%
    19:00 +15°C° 0 mm 2 mps 741 mmHg 70%
    20:00 +13°C° 0 mm 2 mps 741 mmHg 78%
    21:00 +12°C° 0 mm 2 mps 741 mmHg 80%
    22:00 +12°C° 0 mm 2 mps 741 mmHg 83%
    23:00 +10°C° 0 mm 2 mps 741 mmHg 85%

    24 August, Friday

    Time Temperature Precipitation Wind Pressure Humidity
    00:00 +10°C° 0 mm 2 mps 741 mmHg 87%
    01:00 +9°C° 0 mm 2 mps 741 mmHg 89%
    02:00 +9°C° 0 mm 2 mps 741 mmHg 91%
    03:00 +9°C° 0 mm 2 mps 741 mmHg 92%
    04:00 +9°C° 0 mm 2 mps 741 mmHg 92%
    05:00 +8°C° 0 mm 2 mps 740 mmHg 92%
    06:00 +10°C° 0 mm 2 mps 740 mmHg 84%
    07:00 +12°C° 0 mm 3 mps 740 mmHg 76%
    08:00 +14°C° 0 mm 3 mps 740 mmHg 68%
    09:00 +17°C° 0 mm 3 mps 740 mmHg 62%
    10:00 +19°C° 0 mm 4 mps 740 mmHg 55%
    11:00 +21°C° 0 mm 4 mps 740 mmHg 49%
    12:00 +21°C° 0 mm 4 mps 739 mmHg 47%
    13:00 +22°C° 0 mm 4 mps 739 mmHg 45%
    14:00 +23°C° 0 mm 4 mps 739 mmHg 43%
    15:00 +22°C° 0 mm 3 mps 738 mmHg 48%
    16:00 +22°C° 0 mm 3 mps 738 mmHg 52%
    17:00 +21°C° 0 mm 2 mps 737 mmHg 56%
    18:00 +19°C° 0 mm 2 mps 737 mmHg 63%
    19:00 +17°C° 0 mm 2 mps 737 mmHg 70%
    20:00 +14°C° 0 mm 3 mps 737 mmHg 77%
    21:00 +14°C° 0 mm 3 mps 737 mmHg 78%
    22:00 +14°C° 0 mm 3 mps 737 mmHg 79%
    23:00 +13°C° 0 mm 3 mps 737 mmHg 80%

    25 August, Saturday

    Time Temperature Precipitation Wind Pressure Humidity
    00:00 +13°C° 0 mm 3 mps 736 mmHg 80%
    01:00 +13°C° 0 mm 3 mps 736 mmHg 79%
    02:00 +13°C° 0 mm 3 mps 736 mmHg 79%
    03:00 +13°C° 0 mm 3 mps 736 mmHg 78%
    04:00 +13°C° 0 mm 3 mps 736 mmHg 78%
    05:00 +12°C° 0 mm 3 mps 736 mmHg 78%
    06:00 +14°C° 0 mm 4 mps 736 mmHg 73%
    07:00 +15°C° 0 mm 4 mps 735 mmHg 69%
    08:00 +18°C° 0 mm 4 mps 735 mmHg 64%
    09:00 +19°C° 0 mm 5 mps 735 mmHg 57%
    10:00 +21°C° 0 mm 5 mps 735 mmHg 50%
    11:00 +23°C° 0 mm 5 mps 735 mmHg 44%
    12:00 +25°C° 0 mm 5 mps 735 mmHg 42%
    13:00 +25°C° 0 mm 5 mps 734 mmHg 41%
    14:00 +26°C° 0 mm 5 mps 734 mmHg 40%
    15:00 +25°C° 0 mm 5 mps 734 mmHg 45%
    16:00 +23°C° 0 mm 4 mps 734 mmHg 50%
    17:00 +22°C° 0 mm 3 mps 734 mmHg 55%
    18:00 +21°C° 0 mm 3 mps 734 mmHg 59%
    19:00 +20°C° 0 mm 3 mps 734 mmHg 63%
    20:00 +18°C° 0 mm 2 mps 734 mmHg 67%
    21:00 +17°C° 0.1 mm 2 mps 734 mmHg 70%
    22:00 +17°C° 0.1 mm 2 mps 733 mmHg 72%
    23:00 +16°C° 0.1 mm 2 mps 733 mmHg 74%

    26 August, Sunday

    Time Temperature Precipitation Wind Pressure Humidity
    00:00 +16°C° 0.1 mm 2 mps 733 mmHg 74%
    01:00 +16°C° 0.1 mm 2 mps 733 mmHg 75%
    02:00 +16°C° 0.1 mm 2 mps 733 mmHg 75%
    03:00 +15°C° 0.3 mm 2 mps 733 mmHg 78%
    04:00 +15°C° 0.3 mm 2 mps 733 mmHg 81%
    05:00 +14°C° 0.3 mm 2 mps 733 mmHg 83%
    06:00 +14°C° 0.6 mm 2 mps 733 mmHg 84%
    07:00 +15°C° 0.6 mm 2 mps 733 mmHg 86%
    08:00 +15°C° 0.6 mm 2 mps 733 mmHg 87%
    09:00 +15°C° 0.4 mm 1 mps 733 mmHg 87%
    10:00 +16°C° 0.4 mm 1 mps 733 mmHg 88%
    11:00 +16°C° 0.4 mm 1 mps 734 mmHg 88%
    12:00 +16°C° 0.4 mm 1 mps 734 mmHg 89%
    13:00 +16°C° 0.4 mm 1 mps 734 mmHg 90%
    14:00 +18°C° 0.4 mm 1 mps 733 mmHg 91%
    15:00 +15°C° 0.8 mm 0 mps 733 mmHg 93%
    16:00 +15°C° 0.8 mm 0 mps 733 mmHg 95%
    17:00 +15°C° 0.8 mm 0 mps 733 mmHg 97%
    18:00 +14°C° 0.5 mm 0 mps 733 mmHg 97%
    19:00 +14°C° 0.5 mm 0 mps 733 mmHg 97%
    20:00 +14°C° 0.5 mm 0 mps 733 mmHg 98%
    21:00 +14°C° 0.1 mm 0 mps 733 mmHg 98%
    22:00 +14°C° 0.1 mm 1 mps 733 mmHg 98%
    23:00 +14°C° 0.1 mm 1 mps 733 mmHg 98%
    Show more